DL8NDG-13 Weather Reports


Display with metric or nautical units.
time (UTC)temp
F
wind
direction
speed
MPH
gust
MPH
rain 1hr
in
rain 24hr
in
rain mn
in
humidity
%
barometer
mb
20260903074528 65 169 0.0 0.0 0.00 0.00 0.00 72 1020.0
20260903073026 63 138 0.0 0.0 0.00 0.00 0.00 75 1020.3
20260903071528 61 126 0.0 0.0 0.00 0.00 0.00 80 1020.5
20260903070025 60 103 0.0 0.0 0.00 0.00 0.00 83 1020.6
20260903064523 58 248 0.0 0.0 0.00 0.00 0.00 84 1020.5
20260903063021 56 237 0.0 0.0 0.00 0.00 0.00 84 1020.6
20260903061533 56 244 0.0 0.0 0.00 0.00 0.00 83 1020.6
20260903060007 55 247 0.0 0.0 0.00 0.00 0.00 83 1020.9
20260903054511 54 248 0.0 0.0 0.00 0.00 0.00 84 1020.7
20260903053002 53 259 0.0 0.0 0.00 0.00 0.00 84 1020.3
20260903051601 52 259 0.0 0.0 0.00 0.00 0.00 85 1020.1
20260903050058 52 259 0.0 0.0 0.00 0.00 0.00 85 1019.9
20260903044558 53 260 0.0 0.0 0.00 0.00 0.00 85 1019.8
20260903043055 53 258 0.0 0.0 0.00 0.00 0.00 85 1019.9
20260903041608 53 259 0.0 0.0 0.00 0.00 0.00 85 1019.8
20260903040052 54 282 0.0 0.0 0.00 0.00 0.00 85 1019.9
20260903034549 54 280 0.0 0.0 0.00 0.00 0.00 85 1020.0
20260903033048 55 260 0.0 0.0 0.00 0.00 0.00 85 1019.9
20260903031547 55 259 0.0 0.0 0.00 0.00 0.00 85 1019.9
20260903030045 55 259 0.0 0.0 0.00 0.00 0.00 84 1019.9
20260903024545 56 260 0.0 0.0 0.00 0.00 0.00 84 1020.0
20260903023040 56 259 0.0 0.0 0.00 0.00 0.00 83 1020.0
20260903021539 57 258 0.0 0.0 0.00 0.00 0.00 82 1019.9
20260903020042 58 256 0.0 0.0 0.00 0.00 0.00 81 1019.8
20260903014545 58 259 0.0 0.0 0.00 0.00 0.00 80 1019.9
20260903013029 59 259 0.0 0.0 0.00 0.00 0.00 79 1020.0
20260903011528 59 283 0.0 0.0 0.00 0.00 0.00 78 1019.9
20260903010030 60 281 0.0 0.0 0.00 0.00 0.00 77 1020.0
20260903004524 60 280 0.0 0.0 0.00 0.00 0.00 77 1019.9
20260903003021 61 280 0.0 0.0 0.00 0.00 0.00 75 1019.9
20260903001519 62 261 0.0 0.0 0.00 0.00 0.00 73 1019.9
20260903000016 63 263 0.0 0.0 0.00 0.00 0.00 72 1019.8
20260902234518 63 261 0.0 0.0 0.00 0.00 0.00 71 1019.8
20260902233014 63 259 0.0 0.0 0.00 0.00 0.00 71 1020.0
20260902231515 63 256 0.0 0.0 0.00 0.00 0.00 71 1019.9
20260902230012 64 281 0.0 0.0 0.00 0.00 0.00 71 1019.9
20260902224511 64 281 0.0 0.0 0.00 0.00 0.00 72 1020.0
20260902223009 63 263 0.0 0.0 0.00 0.00 0.00 75 1019.9
20260902221518 63 261 0.0 0.0 0.00 0.00 0.00 78 1020.0
20260902220005 64 259 0.0 0.0 0.00 0.00 0.00 79 1019.9
20260902214509 64 259 0.0 0.0 0.00 0.00 0.00 78 1019.8
20260902213003 64 259 0.0 0.0 0.00 0.00 0.00 78 1019.8
20260902211503 64 281 0.0 0.0 0.00 0.00 0.00 77 1019.7
20260902210004 64 263 0.0 0.0 0.00 0.00 0.00 77 1019.7
20260902204501 64 259 0.0 0.0 0.00 0.00 0.00 76 1019.6
20260902203113 65 261 0.0 0.0 0.00 0.00 0.00 76 1019.6
20260902201603 65 259 0.0 0.0 0.00 0.00 0.00 75 1019.4
20260902200059 65 255 0.0 0.0 0.00 0.00 0.00 74 1019.4
20260902194602 65 281 0.0 0.0 0.00 0.00 0.00 73 1019.4
20260902193057 66 261 0.0 0.0 0.00 0.00 0.00 73 1019.2
20260902191557 66 260 0.0 0.0 0.00 0.00 0.00 72 1019.2
20260902190156 67 261 0.0 0.0 0.00 0.00 0.00 71 1019.2
20260902184554 68 258 0.0 0.0 0.00 0.00 0.00 69 1019.0
20260902183055 68 281 0.0 0.0 0.00 0.00 0.00 67 1018.9
20260902181556 69 261 0.0 0.0 0.00 0.00 0.00 65 1018.7
20260902180056 70 259 0.0 0.0 0.00 0.00 0.00 63 1018.5
20260902174552 71 258 0.0 0.0 0.00 0.00 0.00 62 1018.4
20260902173151 71 260 0.0 0.0 0.00 0.00 0.00 61 1018.5
20260902171552 72 282 0.0 0.0 0.00 0.00 0.00 59 1018.4
20260902170050 72 256 0.0 0.0 0.00 0.00 0.00 60 1018.3
20260902164552 72 249 0.0 0.0 0.00 0.00 0.00 58 1018.3
20260902163048 73 246 0.0 0.0 0.00 0.00 0.00 57 1018.4
20260902161548 73 269 0.0 0.0 0.00 0.00 0.00 56 1018.3
20260902154545 74 227 4.0 10.0 0.00 0.00 0.00 54 1018.3
20260902153047 75 221 0.0 0.0 0.00 0.00 0.00 51 1018.3
20260902151551 75 215 0.0 0.0 0.00 0.00 0.00 50 1018.4
20260902150043 76 215 0.0 0.0 0.00 0.00 0.00 50 1018.4
20260902144541 76 207 0.0 0.0 0.00 0.00 0.00 50 1018.4
20260902143040 76 360 0.0 1.0 0.00 0.00 0.00 50 1018.4
20260902141542 77 143 0.0 1.0 0.00 0.00 0.00 49 1018.5
20260902140039 77 201 0.0 11.0 0.00 0.00 0.00 48 1018.5
20260902134539 77 360 0.0 8.0 0.00 0.00 0.00 49 1018.5
20260902133034 76 194 3.0 10.0 0.00 0.00 0.00 52 1018.7
20260902131538 75 232 0.0 0.0 0.00 0.00 0.00 51 1018.8
20260902130033 76 212 0.0 0.0 0.00 0.00 0.00 52 1018.9
20260902124532 75 360 0.0 0.0 0.00 0.00 0.00 54 1018.8
20260902123031 75 360 0.0 0.0 0.00 0.00 0.00 56 1018.8
20260902121530 74 200 0.0 0.0 0.00 0.00 0.00 56 1019.0
20260902120029 76 181 0.0 7.0 0.00 0.00 0.00 52 1019.1
20260902114529 78 193 0.0 0.0 0.00 0.00 0.00 52 1019.3
20260902113022 76 227 0.0 0.0 0.00 0.00 0.00 56 1019.4
20260902111518 73 275 0.0 0.0 0.00 0.00 0.00 66 1019.6
20260902110028 73 273 0.0 0.0 0.00 0.00 0.00 60 1019.7
20260902104532 73 273 0.0 0.0 0.00 0.00 0.00 66 1019.8
20260902103011 71 274 0.0 0.0 0.00 0.00 0.00 66 1020.0
20260902101505 69 289 0.0 0.0 0.00 0.00 0.00 70 1020.2
20260902100002 67 249 0.0 0.0 0.00 0.00 0.00 71 1020.4
20260902094603 67 250 0.0 0.0 0.00 0.00 0.00 72 1020.6
20260902093117 66 250 0.0 0.0 0.00 0.00 0.00 74 1020.3
20260902091557 66 250 0.0 0.0 0.00 0.00 0.00 75 1020.5
20260902090055 65 251 0.0 0.0 0.00 0.00 0.00 75 1020.3
20260902084552 64 250 0.0 0.0 0.00 0.00 0.00 78 1020.3
20260902083059 63 250 0.0 0.0 0.00 0.00 0.00 80 1020.4
20260902081603 62 252 0.0 0.0 0.00 0.00 0.00 81 1020.4
20260902080043 61 252 0.0 0.0 0.00 0.00 0.00 83 1020.3